[[{"header":{"parameterUnit":"m.s-1","parameterCategory":1,"la1":30.2991,"la2":30.254,"lo1":-89.0895,"lo2":-89.0444,"dy":0.0017,"dx":0.0017,"nx":28,"ny":28,"refTime":"2023-10-04T09:00:00:Z","depth":0,"parameterNumber":2,"parameterNumberName":"U-component_of_WINDS"},"data":[0,0,0,0,0,0,0,0,0,0,0,0,0,0,0,0,0,0,0,0,0,0,0,0,0,0,0,0,0,0,0,0,0,0,0,0,0,0,0,0,0,0,0,0,0,0,0,0,0,0,0,0,0,0,0,0,0,0,-3.0836,-3.0836,0,-3.0788,-3.0787,-3.0787,-3.0619,-3.0615,-3.0611,-3.0607,-3.0561,-3.0563,-3.0566,0,0,0,0,0,0,0,0,0,0,0,0,0,-3.0787,-3.0789,-3.0836,-3.0836,-3.0835,-3.0788,-3.0787,-3.0787,-3.0619,-3.0615,-3.061,-3.0606,-3.056,-3.0563,-3.0566,0,0,0,0,0,0,0,0,0,0,0,0,0,-3.0781,-3.0789,-3.0837,-3.0746,-3.0737,-3.0788,-3.0787,-3.0787,-3.062,-3.0614,-3.0609,-3.0603,-3.056,-3.0563,-3.0566,-3.0702,0,0,-3.0577,-3.0578,0,0,0,0,0,0,0,0,-3.0781,-3.0783,-3.076,-3.0752,-3.0743,-3.0703,-3.0753,-3.0758,-3.0622,-3.0665,-3.0607,-3.0601,-3.0613,-3.0612,-3.0616,-3.07,-3.0698,-3.0577,-3.0579,-3.0581,-3.0582,0,0,0,0,0,0,0,-3.0782,-3.0784,-3.0817,-3.076,-3.0749,-3.0709,-3.0701,-3.0753,-3.0672,-3.0661,-3.0648,-3.0645,-3.0608,-3.0613,-3.0613,-3.0697,-3.0577,-3.058,-3.0582,-3.0584,-3.089,-3.0896,0,0,0,0,0,0,-3.0795,-3.0785,-3.0819,-3.0816,-3.0748,-3.0714,-3.0706,-3.0722,-3.0671,-3.0657,-3.065,-3.0637,-3.061,-3.0609,-3.0611,-3.0766,-3.0581,-3.0584,-3.0586,-3.0884,-3.0892,-3.0898,0,0,0,0,0,0,-3.0794,-3.0799,-3.0821,-3.0797,-3.0797,-3.0721,-3.074,-3.0724,-3.0729,-3.0662,-3.0647,-3.0669,-3.0605,-3.0606,-3.068,-3.0762,-3.0586,-3.0589,-3.0877,-3.0886,-3.0895,-3.1078,0,0,0,0,0,0,-3.0794,-3.08,-3.085,-3.08,-3.0799,-3.0891,-3.0745,-3.0727,-3.0735,-3.0718,-3.0677,-3.0665,-3.0601,-3.0676,-3.0684,-3.0764,-3.0592,-3.0869,-3.0881,-3.0892,-3.1064,-3.1092,-3.1116,0,0,0,0,0,-3.0792,-3.0905,-3.0854,-3.0859,-3.086,-3.0896,-3.0895,-3.0818,-3.0742,-3.0792,-3.0749,-3.0666,-3.0752,-3.0685,-3.0692,-3.0775,-3.0864,-3.0878,-3.0891,-3.1053,-3.1087,-3.1115,0,0,0,0,0,0,-3.0968,-3.0896,-3.0839,-3.0938,-3.0924,-3.0867,-3.0928,-3.0857,-3.0865,-3.0849,-3.0754,-3.0746,-3.0834,-3.0811,-3.0738,-3.0903,-3.0794,-3.081,-3.0914,-3.0946,-3.0972,-3.0975,-3.0594,0,0,0,0,0,-3.1018,-3.1052,-3.0988,-3.1082,-3.1078,-3.1005,-3.1017,-3.0959,-3.0941,-3.0935,-3.0897,-3.0885,-3.0908,-3.0926,-3.0944,-3.106,-3.1049,-3.1121,-3.1147,-3.1168,-3.1183,-3.1243,-3.1274,-3.0943,-3.0943,-3.0943,0,0,-3.1122,-3.1087,-3.1115,-3.1116,-3.1098,-3.1137,-3.1001,-3.1047,-3.1075,-3.0942,-3.1009,-3.0982,-3.0961,-3.1057,-3.1097,-3.1041,-3.1272,-3.1186,-3.1203,-3.1206,-3.126,-3.1291,-3.1319,-3.0952,-3.095,-3.0949,0,0,-3.1331,-3.1309,-3.1383,-3.1368,-3.1343,-3.1293,-3.1312,-3.1266,-3.1242,-3.1308,-3.1209,-3.1242,-3.1285,-3.1274,-3.1274,-3.148,-3.1404,-3.1489,-3.1624,-3.1683,-3.1709,-3.1732,-3.1805,-3.1833,-3.1504,-3.1504,-3.1504,0,-3.1464,-3.1517,-3.1431,-3.1484,-3.1487,-3.1368,-3.1444,-3.1434,-3.1417,-3.1423,-3.136,-3.1411,-3.1389,-3.148,-3.153,-3.1535,-3.1553,-3.1492,-3.1712,-3.1734,-3.1754,-3.1823,-3.1851,-3.1514,-3.1513,-3.1512,-3.1511,0,-3.1681,-3.172,-3.1783,-3.1768,-3.1779,-3.1844,-3.1769,-3.179,-3.1732,-3.169,-3.1759,-3.1728,-3.1737,-3.1755,-3.1699,-3.1839,-3.1805,-3.1729,-3.1617,-3.1797,-3.186,-3.1886,-3.1529,-3.1526,-3.1523,-3.152,0,0,-3.1999,-3.1935,-3.196,-3.1952,-3.1915,-3.1944,-3.2003,-3.2012,-3.2032,-3.2025,-3.2072,-3.2112,-3.2041,-3.2042,-3.1983,-3.2036,-3.22,-3.1952,-3.195,-3.1999,-3.2353,-3.2411,-3.2442,-3.215,-3.2154,-3.2158,-3.2355,0,-3.2197,-3.2293,-3.2218,-3.2328,-3.2362,-3.225,-3.2301,-3.2286,-3.2248,-3.2273,-3.2231,-3.2261,-3.2165,-3.2165,-3.2212,-3.2171,-3.227,-3.2155,-3.2194,-3.2196,-3.2202,-3.2475,-3.2535,-3.2723,-3.2379,-3.2383,-3.2386,0,-3.244,-3.2442,-3.2556,-3.2512,-3.2523,-3.2571,-3.2573,-3.2598,-3.2578,-3.2547,-3.2548,-3.2475,-3.2531,-3.2423,-3.2499,-3.2423,-3.2434,-3.2417,-3.2422,-3.2422,-3.2302,-3.2483,-3.278,-3.2809,-3.2424,-3.2421,-3.2419,0,-3.266,-3.2692,-3.2763,-3.2759,-3.271,-3.2746,-3.2728,-3.2702,-3.2712,-3.2714,-3.272,-3.273,-3.2735,-3.2745,-3.2677,-3.2604,-3.2763,-3.2648,-3.2739,-3.2741,-3.2777,-3.2775,-3.3081,-3.2786,-3.2786,-3.2785,-3.2784,0,-3.2889,-3.2962,-3.2861,-3.2905,-3.2984,-3.2898,-3.298,-3.2949,-3.2928,-3.2965,-3.2869,-3.2906,-3.2815,-3.2843,-3.2791,-3.2862,-3.2866,-3.2843,-3.2828,-3.2851,-3.2854,-3.2857,-3.2842,-3.2792,-3.2791,-3.2789,-3.2788,0,-3.3147,-3.3082,-3.3152,-3.31,-3.3088,-3.3149,-3.3105,-3.3144,-3.31,-3.3148,-3.3155,-3.3087,-3.3115,-3.3049,-3.3068,-3.3033,-3.3135,-3.3099,-3.3141,-3.313,-3.3225,-3.3217,-3.3542,-3.358,-3.3262,-3.3266,-3.3268,0,-3.3297,-3.335,-3.3303,-3.332,-3.3307,-3.3336,-3.3345,-3.3263,-3.3277,-3.3259,-3.3301,-3.3321,-3.3332,-3.3383,-3.3336,-3.335,-3.3314,-3.3427,-3.3316,-3.3337,-3.3315,-3.3313,-3.3318,-3.345,-3.3454,-3.3457,-3.346,0,-3.3569,-3.3534,-3.355,-3.3557,-3.357,-3.3571,-3.3566,-3.3586,-3.3498,-3.3519,-3.3546,-3.3555,-3.3574,-3.3595,-3.3599,-3.3581,-3.3507,-3.3495,-3.3517,-3.3541,-3.3562,-3.3552,-3.3203,-3.3488,-3.3485,-3.3483,-3.3482,-3.3481,-3.3777,-3.3819,-3.3792,-3.3814,-3.3801,-3.3798,-3.3832,-3.3793,-3.3813,-3.3821,-3.3772,-3.381,-3.3789,-3.3786,-3.3776,-3.3805,-3.3754,-3.3786,-3.3794,-3.3803,-3.3818,-3.3559,-3.3806,-3.3805,-3.3804,-3.3803,-3.3803,0,-3.4043,-3.402,-3.4041,-3.4036,-3.4054,-3.3981,-3.3971,-3.3991,-3.4025,-3.4012,-3.4025,-3.4056,-3.4077,-3.4032,-3.4046,-3.4078,-3.4044,-3.4084,-3.4081,-3.4078,-3.3863,-3.3843,-3.4111,-3.4111,-3.4111,-3.4111,-3.4111,-3.4111,-3.4184,-3.4251,-3.4214,-3.4275,-3.4252,-3.4287,-3.4288,-3.4285,-3.4273,-3.4312,-3.4328,-3.4298,-3.4273,-3.4284,-3.43,-3.4286,-3.4296,-3.4348,-3.4323,-3.4123,-3.4093,-3.4064,-3.4044,-3.4351,-3.4351,-3.4534,-3.4536,-3.4537]},{"header":{"parameterUnit":"m.s-1","parameterCategory":1,"la1":30.2991,"la2":30.254,"lo1":-89.0895,"lo2":-89.0444,"dy":0.0017,"dx":0.0017,"nx":28,"ny":28,"refTime":"2023-10-04T09:00:00:Z","depth":0,"parameterNumber":3,"parameterNumberName":"V-component_of_WINDS"},"data":[0,0,0,0,0,0,0,0,0,0,0,0,0,0,0,0,0,0,0,0,0,0,0,0,0,0,0,0,0,0,0,0,0,0,0,0,0,0,0,0,0,0,0,0,0,0,0,0,0,0,0,0,0,0,0,0,0,0,-1.139,-1.139,0,-1.141,-1.141,-1.141,-1.1493,-1.1495,-1.1497,-1.1499,-1.1512,-1.1511,-1.1509,0,0,0,0,0,0,0,0,0,0,0,0,0,-1.1416,-1.1415,-1.139,-1.139,-1.139,-1.141,-1.141,-1.141,-1.1492,-1.1495,-1.1497,-1.1499,-1.1513,-1.1511,-1.1509,0,0,0,0,0,0,0,0,0,0,0,0,0,-1.1417,-1.1415,-1.139,-1.1434,-1.1438,-1.141,-1.141,-1.1411,-1.1492,-1.1495,-1.1498,-1.15,-1.1513,-1.1511,-1.1509,-1.1438,0,0,-1.1502,-1.1502,0,0,0,0,0,0,0,0,-1.1417,-1.1416,-1.1427,-1.1431,-1.1435,-1.1452,-1.1425,-1.1419,-1.1491,-1.1471,-1.1499,-1.1502,-1.1489,-1.1489,-1.1487,-1.1439,-1.1439,-1.1502,-1.1501,-1.15,-1.1499,0,0,0,0,0,0,0,-1.1417,-1.1415,-1.1398,-1.1427,-1.1432,-1.145,-1.1454,-1.1424,-1.1464,-1.1473,-1.1479,-1.1481,-1.1492,-1.1488,-1.1487,-1.1439,-1.1502,-1.15,-1.1499,-1.1498,-1.1331,-1.1328,0,0,0,0,0,0,-1.1411,-1.1415,-1.1397,-1.1398,-1.1433,-1.1448,-1.1451,-1.1444,-1.1464,-1.147,-1.1478,-1.1485,-1.1491,-1.149,-1.1488,-1.1404,-1.15,-1.1498,-1.1497,-1.1334,-1.133,-1.1327,0,0,0,0,0,0,-1.1412,-1.1409,-1.1396,-1.1408,-1.1408,-1.1444,-1.1435,-1.1442,-1.1439,-1.1468,-1.1475,-1.1468,-1.1493,-1.1491,-1.145,-1.1405,-1.1497,-1.1495,-1.1338,-1.1333,-1.1329,-1.1236,0,0,0,0,0,0,-1.1412,-1.1409,-1.1383,-1.1407,-1.1407,-1.1359,-1.1432,-1.1441,-1.1436,-1.1444,-1.146,-1.1465,-1.1495,-1.1452,-1.1447,-1.1404,-1.1493,-1.1342,-1.1336,-1.133,-1.1243,-1.1228,-1.1216,0,0,0,0,0,-1.1413,-1.1355,-1.1382,-1.1379,-1.1377,-1.1356,-1.1356,-1.1393,-1.1432,-1.1406,-1.1424,-1.1465,-1.1412,-1.1447,-1.1443,-1.1398,-1.1345,-1.1337,-1.133,-1.1249,-1.1231,-1.1216,0,0,0,0,0,0,-1.1323,-1.1359,-1.1389,-1.1338,-1.1344,-1.137,-1.1338,-1.1374,-1.1367,-1.1375,-1.142,-1.1422,-1.1373,-1.1382,-1.1421,-1.1329,-1.1385,-1.1376,-1.1324,-1.1308,-1.1295,-1.1292,-1.1492,0,0,0,0,0,-1.1298,-1.1281,-1.1313,-1.1265,-1.1266,-1.1302,-1.1294,-1.1323,-1.1329,-1.1331,-1.1347,-1.135,-1.1334,-1.1322,-1.1309,-1.1246,-1.1248,-1.1212,-1.1199,-1.1188,-1.1179,-1.1143,-1.1126,-1.1303,-1.1304,-1.1304,0,0,-1.1245,-1.1263,-1.1248,-1.1247,-1.1255,-1.1233,-1.1303,-1.1277,-1.1261,-1.1327,-1.1288,-1.13,-1.1306,-1.1252,-1.1229,-1.1258,-1.1131,-1.1179,-1.117,-1.1167,-1.1134,-1.1117,-1.1102,-1.1299,-1.13,-1.13,0,0,-1.1136,-1.115,-1.111,-1.1117,-1.1128,-1.1152,-1.1143,-1.1164,-1.1175,-1.1137,-1.1186,-1.1166,-1.1138,-1.114,-1.1137,-1.1029,-1.1064,-1.1023,-1.0952,-1.0916,-1.0902,-1.089,-1.0847,-1.0832,-1.1015,-1.1015,-1.1015,0,-1.1068,-1.1039,-1.1084,-1.1056,-1.1052,-1.1114,-1.1072,-1.1076,-1.1081,-1.1076,-1.111,-1.1075,-1.1083,-1.1029,-1.1003,-1.1,-1.0987,-1.102,-1.0901,-1.0889,-1.0878,-1.0838,-1.0823,-1.1009,-1.101,-1.101,-1.1011,0,-1.0953,-1.0932,-1.0899,-1.0904,-1.0898,-1.0862,-1.09,-1.0887,-1.0917,-1.0936,-1.0896,-1.0909,-1.0898,-1.0888,-1.0916,-1.0837,-1.0854,-1.0894,-1.095,-1.0855,-1.0818,-1.0804,-1.1002,-1.1004,-1.1005,-1.1007,0,0,-1.0786,-1.0818,-1.0805,-1.0807,-1.0825,-1.0808,-1.0775,-1.0767,-1.0754,-1.0756,-1.0726,-1.0702,-1.0738,-1.0734,-1.0763,-1.0732,-1.0641,-1.0775,-1.0776,-1.0746,-1.0551,-1.0519,-1.0501,-1.0667,-1.0664,-1.0662,-1.0549,0,-1.068,-1.0627,-1.0666,-1.0605,-1.0584,-1.0643,-1.0614,-1.0619,-1.0637,-1.062,-1.064,-1.062,-1.0671,-1.0669,-1.0641,-1.0658,-1.0602,-1.0668,-1.0636,-1.0634,-1.0629,-1.0482,-1.0448,-1.0341,-1.0536,-1.0533,-1.0532,0,-1.0548,-1.0546,-1.0483,-1.0503,-1.0496,-1.0469,-1.0464,-1.0449,-1.0456,-1.0471,-1.0467,-1.0503,-1.0469,-1.0528,-1.0479,-1.0523,-1.0512,-1.0519,-1.0515,-1.0511,-1.0574,-1.0469,-1.0308,-1.0291,-1.051,-1.0512,-1.0513,0,-1.0428,-1.0409,-1.0369,-1.037,-1.0394,-1.0373,-1.0381,-1.0392,-1.0384,-1.0379,-1.0373,-1.0364,-1.0357,-1.0348,-1.0379,-1.042,-1.0325,-1.0387,-1.0333,-1.0331,-1.0307,-1.0307,-1.0138,-1.0307,-1.0307,-1.0307,-1.0308,0,-1.0303,-1.0261,-1.0315,-1.0289,-1.0243,-1.0289,-1.0242,-1.0256,-1.0265,-1.0241,-1.0291,-1.0267,-1.0312,-1.0292,-1.0316,-1.027,-1.0268,-1.0276,-1.0282,-1.0269,-1.0268,-1.026,-1.0267,-1.0303,-1.0304,-1.0305,-1.0306,0,-1.0159,-1.0195,-1.0153,-1.018,-1.0186,-1.015,-1.0172,-1.0148,-1.017,-1.0139,-1.0134,-1.0167,-1.0145,-1.0177,-1.0159,-1.0175,-1.011,-1.013,-1.0108,-1.0112,-1.0055,-1.0058,-0.9871,-0.9848,-1.0035,-1.0033,-1.0032,0,-1.0075,-1.0044,-1.0068,-1.0057,-1.0063,-1.0045,-1.0037,-1.0081,-1.0071,-1.0076,-1.005,-1.0034,-1.0023,-0.9985,-1.0005,-0.9991,-1.0008,-0.9944,-1.0006,-0.9993,-1.0002,-1.0002,-0.9997,-0.9929,-0.9927,-0.9925,-0.9924,0,-0.9921,-0.994,-0.9929,-0.9923,-0.9913,-0.991,-0.9911,-0.9898,-0.9944,-0.9929,-0.9909,-0.9901,-0.9883,-0.9864,-0.9855,-0.9861,-0.9897,-0.9905,-0.9891,-0.9875,-0.9862,-0.9864,-1.0069,-0.9908,-0.9909,-0.991,-0.9911,-0.9912,-0.9802,-0.9776,-0.9789,-0.9774,-0.978,-0.9779,-0.9757,-0.9777,-0.9762,-0.9752,-0.9779,-0.9751,-0.9757,-0.9749,-0.9751,-0.9728,-0.9756,-0.9736,-0.9731,-0.9724,-0.9713,-0.9869,-0.9727,-0.9728,-0.9728,-0.9729,-0.9729,0,-0.9647,-0.9658,-0.9645,-0.9644,-0.9632,-0.9673,-0.9675,-0.9661,-0.9637,-0.9641,-0.963,-0.9605,-0.9587,-0.9607,-0.9592,-0.9569,-0.9586,-0.9563,-0.9563,-0.9563,-0.9692,-0.9704,-0.955,-0.955,-0.955,-0.955,-0.955,-0.955,-0.9564,-0.9523,-0.9543,-0.9504,-0.9515,-0.9491,-0.9488,-0.9486,-0.949,-0.9461,-0.9447,-0.9461,-0.947,-0.9457,-0.9441,-0.9447,-0.9437,-0.9407,-0.9419,-0.9537,-0.9555,-0.9571,-0.9582,-0.9406,-0.9406,-0.9292,-0.9291,-0.929]}]]